Wind_Speed
75 69 64 56 54 49 41 37 34 35 32 47 42 49 47 49 48 41 38 38 38 34 32 29 26 23 26 24 21 18 16 13 11 12 15 16 13 12
81 77 75 72 63 56 41 32 29 29 34 38 46 40 50 47 47 45 41 40 37 36 36 34 31 28 28 28 25 23 19 19 18 16 16 17 14 12
90 83 80 74 73 63 53 45 35 28 29 24 39 43 38 44 47 44 41 37 36 37 39 39 36 34 32 32 30 28 24 22 20 17 13 15 15 15
90 87 78 76 78 71 61 48 41 35 32 27 29 27 40 39 40 51 41 39 39 41 43 43 40 38 37 34 34 33 29 26 22 18 16 15 16 18
98 88 84 79 75 76 65 55 47 38 38 38 27 27 35 37 34 37 48 44 40 43 45 45 45 44 42 39 39 39 36 32 28 25 22 20 20 22
102 98 92 87 78 72 72 63 54 44 40 40 33 31 28 40 39 34 38 48 47 43 44 44 45 45 45 42 43 42 41 39 36 34 32 30 27 25
105 104 96 90 85 76 74 65 59 50 48 42 29 27 22 33 36 35 35 42 50 50 47 46 45 45 46 45 43 44 45 45 43 40 41 41 36 34
112 109 103 91 91 89 76 70 64 59 51 44 37 32 30 26 36 35 34 34 41 49 53 51 48 48 47 45 47 44 43 39 36 34 39 40 39 38
111 111 109 95 97 96 90 82 70 69 59 48 43 39 37 35 35 32 36 33 34 45 51 53 49 43 40 42 45 44 43 40 37 34 33 32 30 31
118 106 105 110 101 101 97 90 79 76 72 61 47 50 44 41 39 36 34 29 28 21 39 44 47 46 42 39 43 46 46 42 38 34 31 30 30 29
115 115 109 110 107 103 100 93 85 79 78 76 67 60 52 47 46 42 40 29 26 29 28 35 39 42 41 42 44 46 45 43 41 36 33 31 33 30
122 111 109 108 110 116 107 101 99 97 92 84 78 71 68 60 50 47 45 35 29 25 25 30 41 42 41 44 45 45 43 41 40 37 36 36 35 34
124 121 114 109 110 109 109 105 97 98 95 88 78 73 73 70 60 52 48 47 44 39 38 30 32 34 31 37 40 38 41 43 42 42 42 42 43 44
131 124 123 116 114 111 110 111 103 98 95 87 84 80 78 72 66 63 59 55 47 44 43 41 38 34 35 34 35 36 35 41 44 48 44 42 44 46
125 126 121 124 116 112 109 109 110 109 102 93 94 89 86 85 73 69 63 65 57 53 50 46 43 41 37 34 32 33 35 34 37 44 50 49 45 43
131 130 130 132 121 121 113 107 110 112 111 105 97 91 89 86 84 78 75 74 72 61 61 56 53 47 41 43 43 38 39 44 43 41 38 37 42 44
142 139 133 140 131 122 113 109 111 108 109 103 96 93 92 86 87 83 82 78 75 69 70 66 66 62 55 49 52 48 48 50 49 50 42 39 34 39
141 143 140 136 128 122 115 111 110 111 105 106 102 102 96 94 90 83 82 86 82 74 79 74 71 75 66 62 61 61 59 61 60 56 53 48 46 47
142 143 144 141 132 134 122 118 116 114 112 108 110 104 99 99 100 97 93 92 89 85 85 87 79 78 75 72 69 69 65 67 68 65 63 63 55 54
134 139 139 143 135 132 132 127 122 120 117 112 112 108 108 104 102 98 99 103 98 93 94 89 85 82 80 80 77 78 75 72 77 74 71 72 68 67
126 133 141 143 149 138 135 133 132 129 127 115 113 112 115 114 116 115 107 104 98 94 94 91 92 90 88 90 90 88 84 82 80 79 80 76 77 76
104 121 133 141 137 133 134 138 132 133 129 128 116 114 113 113 114 113 111 107 101 100 100 98 94 93 89 89 90 93 89 85 81 79 81 81 84 83
88 114 117 134 137 138 140 137 142 138 133 129 124 123 116 111 113 111 110 111 105 104 97 98 97 95 97 99 93 90 95 90 84 85 85 87 88 87
Wind_Direction
216 216 221 223 228 232 232 240 236 230 231 227 225 222 221 224 227 227 228 228 229 228 226 228 230 235 234 231 229 224 224 232 235 254 253 257 263 261
211 216 219 226 235 233 230 239 236 221 224 230 227 229 226 220 220 222 223 223 225 228 229 229 231 234 239 236 232 228 225 236 246 249 264 256 256 256
212 212 217 220 227 230 230 237 235 224 226 237 230 228 229 232 231 225 226 226 228 226 228 229 229 233 236 238 237 235 233 233 234 244 259 264 256 261
214 213 215 216 216 223 228 230 236 225 225 229 236 227 230 230 230 229 224 225 228 229 231 231 231 234 235 240 240 236 240 240 240 249 265 269 267 261
212 209 212 210 213 220 222 226 229 231 227 233 229 231 231 221 227 228 226 222 225 228 229 229 230 233 235 237 240 237 239 243 243 247 261 270 269 263
210 213 212 212 214 216 220 227 230 229 234 233 229 235 241 224 219 225 223 224 224 229 231 230 229 230 234 237 241 240 241 244 248 252 258 267 274 277
212 213 211 213 216 212 217 222 227 229 234 227 222 228 235 230 223 223 223 222 225 224 229 231 232 232 234 236 239 241 244 248 253 256 261 263 271 272
212 210 212 215 216 214 219 222 220 228 226 216 219 223 242 238 228 223 226 227 226 227 228 228 227 232 238 242 243 242 243 246 251 252 252 255 259 266
210 209 213 215 217 218 220 224 218 224 223 214 217 222 235 237 237 235 228 230 227 224 226 228 228 229 235 241 245 243 247 248 250 249 249 252 260 263
206 210 216 217 219 221 222 220 219 223 225 223 220 230 231 233 232 243 245 234 228 221 222 219 229 233 234 242 246 245 246 247 251 248 250 254 260 263
206 213 211 219 221 220 220 218 222 224 230 233 222 230 230 229 238 243 244 232 231 225 227 221 219 226 228 231 238 244 245 246 248 248 249 252 255 261
208 208 211 217 222 220 224 224 227 229 230 233 232 234 227 230 232 234 231 224 230 233 237 233 221 228 236 236 238 241 243 244 248 247 251 251 257 264
206 209 211 214 220 225 226 226 228 228 227 230 231 232 229 232 229 226 231 230 231 242 242 247 241 239 244 243 246 247 245 243 242 245 252 257 259 263
208 209 213 214 218 222 227 229 226 227 227 230 231 235 236 226 233 226 232 230 233 236 243 247 256 260 250 250 251 250 253 250 247 244 246 250 257 259
207 209 212 215 214 217 223 226 229 228 229 230 231 232 236 234 236 225 227 233 233 237 239 239 236 244 248 240 232 248 257 265 263 256 254 252 256 263
211 211 214 217 212 217 221 224 227 230 232 233 232 233 234 233 239 231 228 237 237 237 240 238 236 239 243 244 232 241 256 273 273 263 262 266 265 265
211 211 216 217 213 216 219 222 225 227 232 229 229 229 233 239 234 233 231 231 235 246 239 244 242 240 246 250 242 246 255 264 270 267 265 262 271 275
212 212 216 218 215 215 218 221 222 226 226 226 227 229 235 237 231 231 231 231 238 245 238 245 249 248 251 251 252 249 252 258 265 266 264 262 270 281
211 213 214 220 216 216 217 219 218 222 225 229 231 233 233 233 230 232 237 239 242 246 243 247 248 248 249 254 255 254 253 254 258 266 261 265 262 273
215 215 217 219 219 219 218 220 221 222 225 226 231 233 234 233 232 235 241 242 247 250 243 244 245 246 247 251 256 257 256 252 253 265 262 263 261 266
220 217 220 221 222 218 220 221 222 223 226 227 231 232 236 238 238 241 244 246 248 245 240 244 246 251 253 252 255 257 255 258 262 264 260 260 262 267
223 219 219 223 223 222 223 226 223 224 228 228 230 233 236 240 241 245 246 248 247 241 241 244 250 252 250 254 255 252 255 262 266 266 262 259 263 267
222 220 217 222 222 224 225 228 229 228 226 228 230 232 234 238 245 245 245 246 247 243 245 247 252 253 254 256 258 260 260 262 266 265 266 264 266 268
Height
10618 10625 10641 10648 10653 10660 10665 10670 10675 10681 10685 10690 10695 10699 10704 10709 10715 10721 10726 10731 10735 10739 10744 10748 10751 10754 10757 10760 10762 10765 10767 10769 10770 10772 10773 10772 10772 10772
10599 10609 10623 10637 10643 10651 10658 10661 10667 10673 10675 10681 10687 10692 10697 10701 10706 10712 10719 10723 10728 10734 10738 10742 10746 10749 10752 10755 10758 10761 10762 10765 10767 10768 10769 10769 10769 10769
10581 10593 10607 10621 10632 10638 10648 10655 10660 10666 10669 10672 10677 10684 10690 10696 10702 10706 10712 10717 10722 10727 10731 10735 10739 10742 10746 10749 10752 10756 10758 10759 10761 10763 10765 10766 10765 10765
10567 10579 10593 10604 10617 10624 10633 10645 10651 10657 10662 10665 10671 10676 10682 10688 10692 10698 10705 10710 10715 10719 10723 10728 10733 10736 10739 10743 10746 10749 10752 10754 10757 10758 10759 10761 10762 10762
10550 10562 10576 10588 10603 10613 10624 10634 10643 10648 10654 10655 10665 10668 10673 10679 10685 10689 10697 10702 10706 10710 10714 10718 10724 10727 10731 10735 10738 10742 10744 10747 10750 10752 10754 10755 10758 10759
10533 10548 10563 10576 10588 10599 10610 10621 10632 10640 10646 10649 10655 10663 10666 10671 10676 10682 10687 10694 10697 10701 10706 10711 10715 10718 10723 10728 10732 10734 10737 10739 10741 10744 10746 10748 10750 10752
10518 10531 10545 10559 10572 10587 10598 10610 10620 10629 10638 10643 10647 10653 10661 10667 10671 10673 10677 10681 10686 10692 10696 10702 10706 10711 10715 10719 10723 10726 10728 10730 10733 10736 10738 10739 10741 10743
10503 10519 10536 10550 10560 10572 10584 10597 10609 10617 10626 10633 10640 10645 10652 10658 10661 10665 10668 10673 10677 10680 10684 10688 10694 10700 10705 10711 10713 10716 10720 10722 10724 10726 10729 10731 10732 10734
10484 10506 10520 10535 10546 10559 10572 10586 10595 10604 10614 10620 10629 10635 10641 10648 10653 10656 10659 10662 10666 10666 10670 10679 10686 10692 10696 10700 10703 10707 10709 10713 10715 10717 10719 10721 10723 10725
10471 10489 10507 10521 10533 10546 10558 10572 10580 10588 10598 10609 10620 10627 10631 10637 10643 10648 10652 10654 10654 10655 10660 10670 10678 10683 10686 10690 10692 10695 10699 10703 10705 10707 10710 10712 10715 10716
10458 10475 10490 10503 10516 10531 10543 10555 10563 10572 10584 10596 10609 10616 10622 10626 10632 10638 10644 10648 10652 10655 10659 10662 10669 10672 10676 10677 10680 10684 10689 10693 10695 10697 10700 10702 10705 10708
10441 10458 10473 10486 10496 10511 10524 10535 10548 10558 10570 10581 10592 10600 10609 10613 10620 10628 10633 10640 10643 10647 10652 10655 10657 10661 10664 10667 10669 10673 10678 10682 10684 10687 10690 10692 10693 10698
10418 10439 10451 10465 10479 10489 10503 10516 10531 10542 10553 10563 10571 10583 10593 10601 10608 10615 10622 10629 10633 10637 10638 10645 10649 10653 10655 10658 10660 10663 10667 10670 10673 10675 10677 10680 10683 10686
10400 10417 10428 10447 10461 10474 10486 10499 10515 10525 10534 10545 10554 10564 10575 10586 10595 10602 10609 10617 10621 10625 10626 10634 10640 10642 10645 10648 10651 10653 10656 10657 10659 10664 10666 10668 10671 10674
10386 10398 10412 10423 10441 10456 10468 10481 10494 10504 10516 10526 10537 10547 10557 10569 10580 10587 10594 10602 10607 10610 10614 10619 10626 10628 10633 10638 10640 10642 10643 10648 10651 10653 10654 10657 10658 10661
10364 10375 10385 10395 10421 10431 10448 10462 10471 10483 10495 10509 10519 10529 10540 10549 10560 10570 10577 10585 10592 10596 10601 10605 10611 10616 10620 10626 10626 10631 10630 10634 10637 10641 10642 10645 10647 10648
10338 10353 10365 10365 10392 10414 10428 10442 10453 10463 10474 10490 10501 10511 10522 10530 10539 10548 10557 10565 10571 10579 10585 10590 10595 10600 10605 10610 10615 10617 10619 10621 10624 10626 10628 10631 10635 10637
10312 10330 10343 10354 10383 10397 10407 10421 10433 10442 10455 10470 10481 10490 10500 10511 10520 10528 10536 10545 10552 10560 10568 10573 10579 10583 10588 10594 10599 10603 10605 10607 10607 10612 10613 10616 10619 10621
10293 10308 10322 10333 10357 10371 10386 10396 10410 10423 10437 10446 10459 10469 10479 10489 10497 10507 10515 10523 10531 10540 10547 10551 10556 10564 10568 10574 10580 10585 10587 10590 10592 10594 10596 10601 10604 10603
10283 10295 10306 10313 10335 10353 10366 10377 10391 10399 10413 10427 10436 10447 10458 10468 10475 10485 10493 10501 10509 10516 10523 10529 10535 10541 10547 10553 10558 10563 10567 10570 10572 10576 10579 10581 10585 10588
10262 10276 10286 10292 10300 10329 10342 10354 10365 10376 10390 10403 10415 10424 10434 10444 10451 10460 10469 10478 10485 10491 10500 10506 10512 10518 10524 10531 10536 10541 10544 10549 10552 10556 10559 10562 10564 10567
10238 10248 10265 10273 10292 10310 10322 10328 10345 10356 10366 10381 10391 10401 10410 10418 10426 10434 10443 10454 10461 10468 10474 10481 10488 10494 10499 10505 10511 10517 10522 10526 10529 10532 10536 10539 10542 10545
10214 10228 10242 10251 10269 10284 10297 10303 10320 10331 10343 10358 10367 10376 10384 10395 10400 10408 10419 10428 10435 10443 10449 10456 10463 10469 10475 10480 10486 10490 10495 10500 10505 10509 10512 10514 10517 10520